,

(GMT )
Teruel

Tiempo Historia de LETL - Marzo, 2017

Change the Weather History Date:

Martes, Marzo 21, 2017

  Actual Average Record
Temperature  
Temperatura media 50 ° F -  
Temperatura máxima 60 ° F - - ()
Temperatura mínima 39 ° F - - ()
Degree Days  
Grados día de calefacción 16    
Moisture  
Punto de rocío 38 ° F    
Average Humidity 66    
Maximum Humidity 87    
Minimum Humidity 39    
Precipitación  
Precipitación 0.00 pul - - ()
Presión al nivel del mar  
Presión al nivel del mar 29.99 pul    
Viento  
Velocidad del viento 6 mph ()    
Velocidad máxima del viento 16 mph    
Max Gust Speed -    
Visibilidad 6.2 Millas    
Eventos      
T = Trace of Precipitation, MM = Missing Value Source: Averaged Metar Reports

Daily Weather History Graph

Daily Weather History Graph

Search for Another Location

Airport or City:

Trip Planner

Search our weather history database for the weather conditions in past years. The results will help you decide how hot, cold, wet, or windy it might be!

Date:

Astronomía

Mar. 21, 2017 Salida Puesta
Hora real 7:06 AM CET 7:18 PM CET
Crepúsculo civil 6:39 AM CET 7:45 PM CET
Crepúsculo náutico 6:07 AM CET 8:17 PM CET
Crepúsculo astronómico 5:35 AM CET 8:49 PM CET
Luna 2:39 AM CET (3/21) 12:42 PM CET (3/21)
Horas de luz 13h 05m
Horas de luz
12h 11m
Cuarto menguante, 42% of the Moon is Illuminated
Mar 21
Cuarto menguante
Mar 28
Nueva
Abr 3
Cuarto creciente
Abr 11
Luna llena
Abr 19
Cuarto menguante

Hourly Weather History & Observations

Hora (CET) Temp. Vientos helados Punto de rocío Humedad Presión Visibilidad Wind Dir Velocidad del viento Velocidad de ráfagas Precip Eventos Condiciones
12:30 AM 44.6 ° F 42.2 ° F 37.4 ° F 76% 30.01 pul 6.2 mi NO 4.6 mph - N/A   Desconocido
1:00 AM 44.6 ° F 40.7 ° F 37.4 ° F 76% 30.01 pul 6.2 mi ONO 6.9 mph - N/A   Desconocido
1:30 AM 42.8 ° F 37.5 ° F 37.4 ° F 81% 30.01 pul 6.2 mi Oeste 9.2 mph - N/A   Desconocido
3:00 AM 42.8 ° F - 35.6 ° F 76% 29.98 pul 6.2 mi Sin viento Sin viento - N/A   Desconocido
3:30 AM 41.0 ° F - 35.6 ° F 81% 29.98 pul 6.2 mi Variable 1.2 mph - N/A   Desconocido
5:00 AM 39.2 ° F 37.0 ° F 35.6 ° F 87% 29.98 pul 6.2 mi OSO 3.5 mph - N/A   Desconocido
6:30 AM 39.2 ° F 34.2 ° F 33.8 ° F 81% 29.98 pul 6.2 mi NO 6.9 mph - N/A   Desconocido
7:30 AM 39.2 ° F - 33.8 ° F 81% 30.01 pul 6.2 mi Variable 2.3 mph - N/A   Desconocido
8:00 AM 42.8 ° F - 37.4 ° F 81% 30.01 pul 6.2 mi Variable 1.2 mph - N/A   Desconocido
8:30 AM 44.6 ° F - 37.4 ° F 76% 30.01 pul 6.2 mi Variable 1.2 mph - N/A   Desconocido
9:00 AM 44.6 ° F - 37.4 ° F 76% 30.01 pul 6.2 mi Variable 2.3 mph - N/A   Desconocido
9:30 AM 46.4 ° F 44.3 ° F 39.2 ° F 76% 30.01 pul 6.2 mi ESE 4.6 mph - N/A   Desconocido
10:30 AM 51.8 ° F - 39.2 ° F 62% 30.01 pul 6.2 mi SSE 1.2 mph - N/A   Desconocido
11:30 AM 55.4 ° F - 39.2 ° F 54% 29.98 pul - NE 3.5 mph - N/A   Despejado
12:00 PM 57.2 ° F - 37.4 ° F 48% 29.98 pul - Variable 2.3 mph - N/A   Despejado
1:30 PM 60.8 ° F - 39.2 ° F 45% 29.95 pul - NNO 4.6 mph - N/A   Despejado
2:30 PM 60.8 ° F - 41.0 ° F 48% 29.95 pul - NNO 16.1 mph - N/A   Despejado
3:00 PM 59.0 ° F - 41.0 ° F 51% 29.95 pul - Norte 15.0 mph - N/A   Despejado
3:30 PM 59.0 ° F - 37.4 ° F 45% 29.95 pul - NNO 13.8 mph - N/A   Despejado
4:00 PM 59.0 ° F - 35.6 ° F 42% 29.95 pul - NNO 15.0 mph - N/A   Despejado
4:30 PM 59.0 ° F - 33.8 ° F 39% 29.95 pul - Norte 12.7 mph - N/A   Despejado
5:30 PM 57.2 ° F - 35.6 ° F 44% 29.95 pul 6.2 mi NNO 11.5 mph - N/A   Desconocido
6:00 PM 55.4 ° F - 39.2 ° F 54% 29.95 pul - NNO 13.8 mph - N/A   Despejado
6:30 PM 55.4 ° F - 39.2 ° F 54% 29.95 pul - NNO 12.7 mph - N/A   Despejado
7:00 PM 53.6 ° F - 39.2 ° F 58% 29.95 pul - NNO 9.2 mph - N/A   Despejado
7:30 PM 51.8 ° F - 39.2 ° F 62% 29.98 pul - NNO 10.4 mph - N/A   Despejado
8:00 PM 51.8 ° F - 39.2 ° F 62% 29.98 pul - NO 12.7 mph - N/A   Despejado
8:30 PM 50.0 ° F - 39.2 ° F 66% 30.01 pul - NO 10.4 mph - N/A   Despejado
9:00 PM 48.2 ° F - 39.2 ° F 71% 29.98 pul 6.2 mi NNO 9.2 mph - N/A   Desconocido
9:30 PM 46.4 ° F 41.9 ° F 39.2 ° F 76% 30.01 pul 6.2 mi NO 9.2 mph - N/A   Desconocido
10:00 PM 44.6 ° F 37.8 ° F 37.4 ° F 76% 30.04 pul 6.2 mi NO 15.0 mph - N/A   Desconocido
11:00 PM 42.8 ° F 41.1 ° F 39.2 ° F 87% 30.04 pul 6.2 mi Oeste 3.5 mph - N/A   Muy nublado
11:30 PM 44.6 ° F 40.7 ° F 39.2 ° F 81% 30.04 pul 6.2 mi NO 6.9 mph - N/A   Nublado